Time,TemperatureF,DewpointF,PressureIn,WindDirection,WindDirectionDegrees,WindSpeedMPH,WindSpeedGustMPH,Humidity,HourlyPrecipIn,Conditions,Clouds,dailyrainin,SoftwareType,DateUTC
2013-09-20 00:00:00,74.7,69.9,29.91,North,0,0.0,0.0,85,0.01,,,0.00,WUHU216HW,2013-09-20 05:00:00,
2013-09-20 00:05:00,74.7,69.9,29.91,North,0,0.0,0.0,85,0.01,,,0.00,WUHU216HW,2013-09-20 05:05:00,
2013-09-20 00:30:00,74.2,69.4,29.91,North,0,0.0,0.0,85,0.01,,,0.00,WUHU216HW,2013-09-20 05:30:00,
2013-09-20 00:35:00,74.2,69.4,29.91,North,0,0.0,0.0,85,0.01,,,0.00,WUHU216HW,2013-09-20 05:35:00,
2013-09-20 01:00:00,74.0,69.6,29.90,North,0,0.0,0.0,86,0.02,,,0.01,WUHU216HW,2013-09-20 06:00:00,
2013-09-20 01:05:00,74.0,69.6,29.90,North,0,0.0,0.0,86,0.02,,,0.01,WUHU216HW,2013-09-20 06:05:00,
2013-09-20 01:30:00,74.0,69.9,29.89,North,0,0.0,0.0,87,0.01,,,0.02,WUHU216HW,2013-09-20 06:30:00,
2013-09-20 01:35:00,74.0,69.9,29.89,North,0,0.0,0.0,87,0.01,,,0.02,WUHU216HW,2013-09-20 06:35:00,
2013-09-20 02:00:00,74.0,70.2,29.89,North,0,0.0,0.0,88,0.00,,,0.02,WUHU216HW,2013-09-20 07:00:00,
2013-09-20 02:05:00,74.0,70.2,29.89,North,0,0.0,0.0,88,0.00,,,0.02,WUHU216HW,2013-09-20 07:05:00,
2013-09-20 02:30:00,74.0,70.6,29.88,North,0,0.0,0.0,89,0.02,,,0.02,WUHU216HW,2013-09-20 07:30:00,
2013-09-20 02:35:00,74.0,70.6,29.88,North,0,0.0,0.0,89,0.02,,,0.02,WUHU216HW,2013-09-20 07:35:00,
2013-09-20 03:00:00,73.8,70.4,29.87,North,0,0.0,0.0,89,0.03,,,0.04,WUHU216HW,2013-09-20 08:00:00,
2013-09-20 03:05:00,73.8,70.4,29.87,North,0,0.0,0.0,89,0.03,,,0.04,WUHU216HW,2013-09-20 08:05:00,
2013-09-20 03:30:00,73.4,70.0,29.86,North,0,0.0,0.0,89,0.01,,,0.05,WUHU216HW,2013-09-20 08:30:00,
2013-09-20 03:35:00,73.4,70.0,29.86,North,0,0.0,0.0,89,0.01,,,0.05,WUHU216HW,2013-09-20 08:35:00,
2013-09-20 04:00:00,73.4,70.0,29.85,North,0,0.0,0.0,89,0.02,,,0.05,WUHU216HW,2013-09-20 09:00:00,
2013-09-20 04:05:00,73.4,70.0,29.85,North,0,0.0,0.0,89,0.02,,,0.05,WUHU216HW,2013-09-20 09:05:00,
2013-09-20 04:30:00,73.4,70.0,29.85,North,0,0.0,0.0,89,0.17,,,0.07,WUHU216HW,2013-09-20 09:30:00,
2013-09-20 04:35:00,73.4,70.0,29.85,North,0,0.0,0.0,89,0.17,,,0.07,WUHU216HW,2013-09-20 09:35:00,
2013-09-20 05:00:00,73.6,70.2,29.84,North,0,0.0,0.0,89,0.19,,,0.22,WUHU216HW,2013-09-20 10:00:00,
2013-09-20 05:05:00,73.6,70.2,29.84,North,0,0.0,0.0,89,0.19,,,0.22,WUHU216HW,2013-09-20 10:05:00,
2013-09-20 05:30:00,73.6,70.2,29.83,North,0,0.0,0.0,89,0.07,,,0.26,WUHU216HW,2013-09-20 10:30:00,
2013-09-20 05:35:00,73.6,70.2,29.83,North,0,0.0,0.0,89,0.07,,,0.26,WUHU216HW,2013-09-20 10:35:00,
2013-09-20 06:00:00,73.4,70.4,29.84,North,0,0.0,0.0,90,0.08,,,0.29,WUHU216HW,2013-09-20 11:00:00,
2013-09-20 06:05:00,73.4,70.4,29.84,North,0,0.0,0.0,90,0.08,,,0.29,WUHU216HW,2013-09-20 11:05:00,
2013-09-20 06:30:00,73.4,70.4,29.84,North,0,0.0,0.0,90,0.08,,,0.34,WUHU216HW,2013-09-20 11:30:00,
2013-09-20 06:35:00,73.4,70.4,29.84,North,0,0.0,0.0,90,0.08,,,0.34,WUHU216HW,2013-09-20 11:35:00,
2013-09-20 07:00:00,73.4,70.4,29.83,North,0,0.0,0.0,90,0.05,,,0.38,WUHU216HW,2013-09-20 12:00:00,
2013-09-20 07:05:00,73.4,70.4,29.83,North,0,0.0,0.0,90,0.05,,,0.38,WUHU216HW,2013-09-20 12:05:00,
2013-09-20 07:30:00,73.6,70.6,29.83,North,0,0.0,0.0,90,0.01,,,0.39,WUHU216HW,2013-09-20 12:30:00,
2013-09-20 07:35:00,73.6,70.6,29.83,North,0,0.0,0.0,90,0.01,,,0.39,WUHU216HW,2013-09-20 12:35:00,
2013-09-20 08:00:00,73.6,70.6,29.83,North,0,0.0,0.0,90,0.00,,,0.39,WUHU216HW,2013-09-20 13:00:00,
2013-09-20 08:05:00,73.6,70.6,29.83,North,0,0.0,0.0,90,0.00,,,0.39,WUHU216HW,2013-09-20 13:05:00,
2013-09-20 08:30:00,74.0,70.9,29.83,North,0,0.0,0.0,90,0.00,,,0.39,WUHU216HW,2013-09-20 13:30:00,
2013-09-20 08:35:00,74.0,70.9,29.83,North,0,0.0,0.0,90,0.00,,,0.39,WUHU216HW,2013-09-20 13:35:00,
2013-09-20 09:00:00,74.0,70.9,29.84,North,0,0.0,0.0,90,0.00,,,0.39,WUHU216HW,2013-09-20 14:00:00,
2013-09-20 09:05:00,74.0,70.9,29.84,North,0,0.0,0.0,90,0.00,,,0.39,WUHU216HW,2013-09-20 14:05:00,
2013-09-20 09:30:00,73.6,70.6,29.84,North,0,0.0,0.0,90,0.00,,,0.39,WUHU216HW,2013-09-20 14:30:00,
2013-09-20 09:35:00,73.6,70.6,29.84,North,0,0.0,0.0,90,0.00,,,0.39,WUHU216HW,2013-09-20 14:35:00,
2013-09-20 10:00:00,73.8,70.7,29.85,North,0,0.0,0.0,90,0.00,,,0.39,WUHU216HW,2013-09-20 15:00:00,
2013-09-20 10:05:00,73.8,70.7,29.85,North,0,0.0,0.0,90,0.00,,,0.39,WUHU216HW,2013-09-20 15:05:00,
2013-09-20 10:30:00,73.3,70.2,29.86,North,0,0.0,0.0,90,0.01,,,0.39,WUHU216HW,2013-09-20 15:30:00,
2013-09-20 10:35:00,73.3,70.2,29.86,North,0,0.0,0.0,90,0.01,,,0.39,WUHU216HW,2013-09-20 15:35:00,
2013-09-20 11:00:00,72.7,69.3,29.86,North,0,0.0,0.0,89,0.02,,,0.40,WUHU216HW,2013-09-20 16:00:00,
2013-09-20 11:05:00,72.7,69.3,29.86,North,0,0.0,0.0,89,0.02,,,0.40,WUHU216HW,2013-09-20 16:05:00,
2013-09-20 11:30:00,72.5,69.1,29.86,North,0,0.0,0.0,89,0.02,,,0.41,WUHU216HW,2013-09-20 16:30:00,
2013-09-20 11:35:00,72.5,69.1,29.86,North,0,0.0,0.0,89,0.02,,,0.41,WUHU216HW,2013-09-20 16:35:00,
2013-09-20 12:00:00,72.5,69.1,29.86,North,0,0.0,0.0,89,0.01,,,0.43,WUHU216HW,2013-09-20 17:00:00,
2013-09-20 12:05:00,72.5,69.1,29.86,North,0,0.0,0.0,89,0.01,,,0.43,WUHU216HW,2013-09-20 17:05:00,
2013-09-20 12:30:00,72.7,68.9,29.86,North,0,0.0,0.0,88,0.00,,,0.43,WUHU216HW,2013-09-20 17:30:00,
2013-09-20 12:35:00,72.7,68.9,29.86,North,0,0.0,0.0,88,0.00,,,0.43,WUHU216HW,2013-09-20 17:35:00,
2013-09-20 13:00:00,72.4,68.6,29.86,North,0,0.0,0.0,88,0.02,,,0.43,WUHU216HW,2013-09-20 18:00:00,
2013-09-20 13:05:00,72.4,68.6,29.86,North,0,0.0,0.0,88,0.02,,,0.43,WUHU216HW,2013-09-20 18:05:00,
2013-09-20 13:30:00,73.1,69.7,29.86,North,0,0.0,0.0,89,0.03,,,0.45,WUHU216HW,2013-09-20 18:30:00,
2013-09-20 13:35:00,73.1,69.7,29.86,North,0,0.0,0.0,89,0.03,,,0.45,WUHU216HW,2013-09-20 18:35:00,
2013-09-20 14:00:00,72.9,69.5,29.84,North,0,0.0,0.0,89,0.01,,,0.45,WUHU216HW,2013-09-20 19:00:00,
2013-09-20 14:05:00,72.9,69.5,29.84,North,0,0.0,0.0,89,0.01,,,0.45,WUHU216HW,2013-09-20 19:05:00,
2013-09-20 14:30:00,72.9,69.5,29.84,North,0,0.0,0.0,89,0.00,,,0.45,WUHU216HW,2013-09-20 19:30:00,
2013-09-20 14:35:00,72.9,69.5,29.84,North,0,0.0,0.0,89,0.00,,,0.45,WUHU216HW,2013-09-20 19:35:00,
2013-09-20 15:00:00,73.1,69.7,29.83,North,0,0.0,0.0,89,0.00,,,0.45,WUHU216HW,2013-09-20 20:00:00,
2013-09-20 15:05:00,73.1,69.7,29.83,North,0,0.0,0.0,89,0.00,,,0.45,WUHU216HW,2013-09-20 20:05:00,
2013-09-20 15:30:00,73.4,70.0,29.83,North,0,0.0,0.0,89,0.00,,,0.45,WUHU216HW,2013-09-20 20:30:00,
2013-09-20 15:35:00,73.4,70.0,29.83,North,0,0.0,0.0,89,0.00,,,0.45,WUHU216HW,2013-09-20 20:35:00,
2013-09-20 16:00:00,73.3,69.8,29.83,North,0,0.0,0.0,89,0.00,,,0.45,WUHU216HW,2013-09-20 21:00:00,
2013-09-20 16:05:00,73.3,69.8,29.83,North,0,0.0,0.0,89,0.00,,,0.45,WUHU216HW,2013-09-20 21:05:00,
2013-09-20 16:30:00,73.3,69.8,29.86,North,0,0.0,0.0,89,0.00,,,0.45,WUHU216HW,2013-09-20 21:30:00,
2013-09-20 16:35:00,73.3,69.8,29.86,North,0,0.0,0.0,89,0.00,,,0.45,WUHU216HW,2013-09-20 21:35:00,
2013-09-20 17:00:00,73.3,69.8,29.86,North,0,0.0,0.0,89,0.00,,,0.45,WUHU216HW,2013-09-20 22:00:00,
2013-09-20 17:05:00,73.3,69.8,29.86,North,0,0.0,0.0,89,0.00,,,0.45,WUHU216HW,2013-09-20 22:05:00,
2013-09-20 17:30:00,73.1,69.7,29.86,North,0,0.0,0.0,89,0.00,,,0.45,WUHU216HW,2013-09-20 22:30:00,
2013-09-20 17:35:00,73.1,69.7,29.86,North,0,0.0,0.0,89,0.00,,,0.45,WUHU216HW,2013-09-20 22:35:00,
2013-09-20 18:00:00,72.5,68.5,29.86,North,0,0.0,0.0,87,0.00,,,0.45,WUHU216HW,2013-09-20 23:00:00,
2013-09-20 18:05:00,72.5,68.5,29.86,North,0,0.0,0.0,87,0.00,,,0.45,WUHU216HW,2013-09-20 23:05:00,
2013-09-20 18:30:00,72.4,68.0,29.85,North,0,0.0,0.0,86,0.00,,,0.45,WUHU216HW,2013-09-20 23:30:00,
2013-09-20 18:35:00,72.4,68.0,29.85,North,0,0.0,0.0,86,0.00,,,0.45,WUHU216HW,2013-09-20 23:35:00,
2013-09-20 19:00:00,72.2,67.8,29.86,North,0,0.0,0.0,86,0.00,,,0.45,WUHU216HW,2013-09-21 00:00:00,
2013-09-20 19:05:00,72.2,67.8,29.86,North,0,0.0,0.0,86,0.00,,,0.45,WUHU216HW,2013-09-21 00:05:00,
2013-09-20 19:30:00,71.8,67.8,29.86,North,0,0.0,0.0,87,0.00,,,0.45,WUHU216HW,2013-09-21 00:30:00,
2013-09-20 19:35:00,71.8,67.8,29.86,North,0,0.0,0.0,87,0.00,,,0.45,WUHU216HW,2013-09-21 00:35:00,
2013-09-20 20:00:00,71.8,67.8,29.85,North,0,0.0,0.0,87,0.00,,,0.45,WUHU216HW,2013-09-21 01:00:00,
2013-09-20 20:05:00,71.8,67.8,29.85,North,0,0.0,0.0,87,0.00,,,0.45,WUHU216HW,2013-09-21 01:05:00,
2013-09-20 20:30:00,71.8,68.0,29.85,North,0,0.0,0.0,88,0.00,,,0.45,WUHU216HW,2013-09-21 01:30:00,
2013-09-20 20:35:00,71.8,68.0,29.85,North,0,0.0,0.0,88,0.00,,,0.45,WUHU216HW,2013-09-21 01:35:00,
2013-09-20 21:00:00,71.6,67.9,29.85,North,0,0.0,0.0,88,0.00,,,0.45,WUHU216HW,2013-09-21 02:00:00,
2013-09-20 21:05:00,71.6,67.9,29.85,North,0,0.0,0.0,88,0.00,,,0.45,WUHU216HW,2013-09-21 02:05:00,
2013-09-20 21:30:00,71.6,67.9,29.86,North,0,0.0,0.0,88,0.00,,,0.45,WUHU216HW,2013-09-21 02:30:00,
2013-09-20 21:35:00,71.6,67.9,29.86,North,0,0.0,0.0,88,0.00,,,0.45,WUHU216HW,2013-09-21 02:35:00,
2013-09-20 22:00:00,71.5,67.7,29.87,North,0,0.0,0.0,88,0.00,,,0.45,WUHU216HW,2013-09-21 03:00:00,
2013-09-20 22:05:00,71.5,67.7,29.87,North,0,0.0,0.0,88,0.00,,,0.45,WUHU216HW,2013-09-21 03:05:00,
2013-09-20 22:30:00,71.3,67.5,29.88,North,0,0.0,0.0,88,0.00,,,0.45,WUHU216HW,2013-09-21 03:30:00,
2013-09-20 22:35:00,71.3,67.5,29.88,North,0,0.0,0.0,88,0.00,,,0.45,WUHU216HW,2013-09-21 03:35:00,
2013-09-20 23:00:00,70.9,66.9,29.89,North,0,0.0,0.0,87,0.00,,,0.45,WUHU216HW,2013-09-21 04:00:00,
2013-09-20 23:01:00,70.9,66.9,29.89,North,0,0.0,0.0,87,0.00,,,0.45,WUHU216HW,2013-09-21 04:01:00,
2013-09-20 23:06:00,70.9,66.9,29.89,North,0,0.0,0.0,87,0.00,,,0.45,WUHU216HW,2013-09-21 04:06:00,
2013-09-20 23:30:00,70.6,66.2,29.89,North,0,0.0,0.0,86,0.00,,,0.45,WUHU216HW,2013-09-21 04:30:00,
2013-09-20 23:35:00,70.6,66.2,29.89,North,0,0.0,0.0,86,0.00,,,0.45,WUHU216HW,2013-09-21 04:35:00,